Theta_e
336 339 339 337 335 333 332 329 331 332 330 331 332 332 331 338 344 346 349 359 358 358 355 352 351 350 349 348 350 349 349 349 349 348 340 333 329 330 330 329 329 330 331
342 340 338 337 334 333 332 332 329 332 333 332 333 333 330 341 343 344 349 354 356 355 355 353 351 351 351 350 350 350 351 348 348 344 336 331 330 329 328 328 329 330 331
342 342 338 338 338 335 334 334 332 334 334 335 335 337 335 331 341 342 344 346 351 354 355 355 353 350 348 348 349 349 351 348 346 340 333 332 331 330 329 328 329 330 331
344 341 341 336 339 337 337 336 336 336 336 335 335 338 334 331 336 340 342 344 345 346 352 352 351 350 350 347 348 351 349 347 343 337 334 332 331 331 331 331 330 330 331
345 341 341 339 337 336 333 332 336 335 335 338 339 337 337 337 333 340 339 339 340 341 341 349 351 350 350 349 347 348 349 346 341 337 333 333 332 332 332 332 329 329 329
345 341 342 339 336 335 334 335 332 340 337 338 341 337 336 337 338 336 335 336 336 336 337 339 345 345 349 349 346 345 346 345 340 335 337 337 336 333 334 334 331 329 327
346 341 338 338 338 336 338 336 335 342 338 337 331 330 332 335 335 335 336 338 335 336 335 338 341 341 344 348 346 346 344 344 340 336 338 337 337 335 335 336 334 330 327
346 343 340 339 338 338 339 340 340 337 333 334 328 324 322 325 332 335 333 335 336 338 337 336 338 339 339 341 341 346 346 345 342 337 339 337 337 336 336 337 336 331 327
338 336 337 335 336 341 340 337 334 332 331 333 331 325 319 317 325 328 327 329 332 333 337 339 339 338 336 338 341 343 346 345 345 341 341 339 337 336 337 339 338 333 328
337 339 338 338 333 338 330 327 328 326 329 326 329 334 332 331 323 321 324 326 329 334 338 337 338 338 338 336 339 340 341 343 346 345 344 343 339 337 338 340 341 335 330
331 334 335 332 332 328 327 327 327 328 332 330 330 328 328 330 331 326 323 325 333 338 341 338 338 337 337 338 338 337 339 339 341 342 342 343 344 342 342 342 341 338 332
326 326 329 332 335 334 331 329 327 327 327 327 327 328 329 327 325 326 324 324 326 333 337 338 335 334 335 335 339 340 337 336 335 335 337 340 343 343 343 344 343 341 335
324 325 327 327 328 330 331 330 327 328 327 325 324 326 334 332 331 329 326 327 326 331 333 335 336 336 338 336 335 338 339 335 332 331 332 333 337 341 342 344 345 342 337
322 323 325 326 326 328 330 330 327 326 325 326 326 329 332 335 333 332 329 326 324 324 327 329 335 336 336 336 335 337 338 334 331 329 328 329 331 335 337 340 341 340 336
315 317 318 319 322 324 327 330 327 327 328 327 330 334 335 335 334 333 331 330 325 321 321 326 328 334 335 333 335 337 336 335 331 327 326 326 327 329 331 334 335 334 331
311 312 313 315 317 319 321 324 324 325 325 326 328 330 332 333 334 334 333 333 332 327 322 328 331 334 335 337 337 337 338 335 332 329 326 325 324 325 326 328 330 330 328
310 312 313 314 315 316 317 319 322 324 322 321 322 322 323 326 329 330 330 329 328 330 327 329 332 335 334 333 338 340 340 337 337 331 329 326 323 323 325 325 326 327 326
309 311 312 312 313 315 316 317 319 319 317 317 317 319 321 325 327 325 324 324 325 328 326 322 328 330 330 332 338 338 338 339 338 334 329 327 323 322 322 323 323 323 321
308 310 310 310 311 312 313 315 314 314 313 313 313 314 318 319 318 318 321 318 321 324 323 323 323 329 330 328 328 333 334 336 338 334 329 328 324 322 320 319 319 318 316
306 307 309 310 311 311 312 310 310 309 309 309 311 312 314 315 316 316 317 316 320 316 317 317 318 321 324 326 325 324 323 328 331 338 333 327 325 324 321 319 319 318 314
308 309 309 310 310 311 312 309 308 308 307 308 310 311 312 316 319 319 318 318 318 317 316 316 314 315 316 319 320 325 321 320 323 327 327 327 324 321 319 319 322 321 315
307 307 306 307 307 311 308 308 308 306 308 307 307 310 313 317 316 317 315 316 315 317 316 314 314 312 312 315 318 319 318 316 316 323 321 322 322 320 320 317 319 318 314
303 303 304 305 305 306 306 305 306 307 309 307 308 309 310 314 315 317 313 312 314 313 314 316 312 312 313 314 317 318 316 316 316 321 321 318 321 321 323 322 314 314 312
303 303 304 304 304 308 306 304 305 306 308 308 308 308 308 308 304 305 308 312 312 312 313 315 313 311 311 313 313 315 314 311 308 310 320 315 317 318 321 321 312 312 309
302 303 304 305 304 306 304 302 303 304 305 306 308 306 305 305 300 299 307 306 306 307 310 308 306 305 303 303 304 309 308 305 302 304 309 314 313 314 316 318 320 309 307
302 304 304 304 305 305 301 300 302 305 305 304 304 304 300 300 298 297 302 302 301 302 305 306 306 306 305 306 306 308 310 307 304 304 306 309 307 309 308 311 316 318 309
Wind_Speed
5 5 6 4 5 4 4 5 4 5 5 6 8 7 6 4 7 3 3 14 14 15 16 16 15 14 12 11 10 10 10 10 8 7 7 6 5 4 3 3 2 2 0
7 7 6 5 5 5 5 5 5 5 6 5 7 6 6 4 5 6 5 8 15 15 15 15 14 13 13 12 11 11 9 7 7 8 7 6 5 4 3 2 0 1 1
8 8 7 7 8 5 7 4 5 5 5 6 8 6 4 7 6 8 6 4 8 14 15 15 13 13 12 12 11 11 11 10 8 8 8 8 7 6 4 2 2 1 2
9 7 6 6 8 4 4 3 5 5 8 4 3 5 3 1 5 7 6 5 6 7 12 15 14 13 13 12 10 12 11 10 10 10 9 10 9 7 6 3 2 1 2
12 7 7 6 6 5 4 3 4 3 3 2 3 3 1 1 2 6 7 8 6 7 6 13 14 13 13 14 12 12 12 12 11 11 12 11 11 9 6 3 2 1 1
8 6 7 6 4 3 3 1 2 2 1 1 0 1 2 3 3 4 5 4 5 6 5 7 7 8 15 15 14 14 14 14 14 13 12 12 10 9 7 5 4 3 2
7 7 5 4 3 4 4 0 1 2 1 3 3 4 4 4 4 4 3 2 4 7 6 7 6 5 7 16 16 15 17 17 16 15 13 12 10 11 9 7 6 4 2
7 9 10 8 8 7 5 2 4 2 3 4 3 1 5 5 5 4 2 3 1 2 6 9 8 9 7 7 10 17 18 18 17 17 16 14 13 12 10 9 8 5 3
5 5 8 6 7 7 7 7 7 6 2 2 5 3 4 4 4 4 5 3 3 1 5 5 8 7 6 5 9 14 19 18 19 19 18 15 15 15 13 11 10 7 5
9 5 3 4 15 4 5 7 4 3 1 2 0 2 3 5 4 6 4 3 4 4 5 4 7 6 7 4 7 9 11 16 19 19 19 18 18 17 15 13 11 10 8
10 12 4 4 4 4 3 8 5 2 1 2 4 4 2 1 9 6 7 4 1 2 2 3 2 4 5 5 5 6 11 12 15 17 19 19 19 17 16 15 14 12 10
5 9 10 8 3 2 5 6 8 10 6 5 4 5 7 7 7 5 6 5 5 3 1 3 4 3 4 5 7 12 11 16 17 18 18 18 19 19 18 17 16 15 13
6 8 7 5 3 5 4 7 5 6 6 5 6 4 8 5 6 4 2 3 2 2 2 4 3 9 5 5 6 14 16 14 15 18 17 15 12 14 17 17 17 16 15
6 7 8 6 7 8 7 4 4 4 4 4 8 6 8 7 4 4 3 3 4 3 3 6 4 4 5 7 8 10 7 12 15 18 16 16 17 15 15 16 16 16 14
6 7 7 8 9 9 10 4 3 6 7 8 9 10 9 8 4 3 4 4 4 4 3 2 3 5 4 2 5 5 5 9 10 9 12 16 17 17 18 17 16 16 15
6 7 8 8 8 7 9 9 6 5 3 4 5 5 5 4 5 4 5 4 5 5 4 3 5 4 2 5 7 7 11 15 14 9 12 13 13 15 15 15 17 17 17
6 6 6 7 8 10 6 4 7 7 8 7 9 7 7 5 3 2 2 2 2 3 4 3 3 3 3 5 5 6 6 10 8 8 10 5 7 12 14 17 16 17 17
5 5 6 6 7 7 9 9 7 7 7 9 8 9 9 6 5 2 0 1 1 3 0 3 3 1 4 5 6 8 8 9 9 7 12 15 12 13 16 15 17 17 17
4 5 5 6 7 7 6 5 5 6 6 6 7 8 7 7 8 4 3 2 1 2 1 1 3 2 2 1 1 3 5 6 5 12 16 24 16 16 17 15 16 17 19
3 3 4 5 6 6 6 5 5 5 5 5 6 6 7 6 6 7 5 4 3 2 3 2 2 3 2 2 2 2 1 3 8 8 10 8 11 14 11 12 14 15 17
4 3 4 5 6 6 5 6 5 6 6 6 7 6 6 10 11 5 4 5 3 2 2 3 2 3 3 3 3 3 2 3 3 3 2 1 1 2 3 8 9 13 13
4 4 4 4 6 5 10 8 7 5 5 6 6 7 6 10 6 7 5 5 2 4 3 2 3 1 3 2 3 2 2 2 3 3 1 2 2 3 3 4 10 14 17
4 5 5 5 6 6 10 11 9 4 4 6 6 6 6 7 9 6 8 9 5 2 7 1 2 2 3 2 4 3 1 0 2 2 2 3 1 3 4 4 12 13 15
4 4 5 7 6 6 10 10 6 4 4 6 6 6 5 6 7 7 5 4 5 4 1 2 2 5 5 5 3 2 3 3 4 3 3 3 1 3 1 3 13 15 15
4 4 4 7 7 7 10 9 6 5 5 6 5 3 4 4 8 11 4 4 4 4 6 4 6 9 10 11 7 2 3 1 3 3 2 3 2 2 2 2 3 11 12
4 4 6 6 7 5 10 10 6 3 4 4 6 5 7 4 7 8 5 5 5 5 6 9 9 8 5 7 8 6 3 4 2 3 3 4 1 2 2 2 1 1 3
Wind_Direction
228 238 239 217 234 224 233 254 244 253 247 245 263 264 281 219 178 162 153 181 188 192 196 202 200 198 198 201 201 206 211 215 220 193 158 155 154 159 147 143 156 142 5
215 217 222 229 239 221 224 221 232 241 259 256 261 238 226 199 187 157 180 191 193 196 198 204 203 203 203 203 206 210 217 169 165 164 167 161 160 168 171 175 247 333 326
215 219 214 217 231 222 235 230 242 245 262 260 257 268 205 190 199 183 184 191 201 201 203 203 202 206 207 211 213 220 187 179 184 178 173 172 177 185 183 197 232 252 317
229 223 224 212 222 225 225 234 240 242 241 241 267 270 272 203 201 195 184 193 199 198 203 198 195 200 200 202 207 192 184 183 192 186 184 184 189 191 191 193 239 216 252
230 227 229 230 204 199 204 222 251 211 235 248 239 227 151 2 252 213 202 204 210 199 194 204 195 198 200 200 198 197 189 195 192 193 196 194 195 197 199 202 235 222 266
224 229 250 247 240 256 267 235 211 82 163 202 37 319 251 199 199 258 226 187 201 222 216 190 198 203 202 201 202 201 204 204 201 203 204 203 201 204 203 210 221 202 214
219 206 207 260 272 255 251 179 139 155 12 14 5 329 320 291 262 213 180 149 218 204 208 216 196 202 204 201 201 199 206 206 206 209 209 207 207 213 217 224 231 215 188
356 50 47 30 352 317 295 99 60 38 35 49 11 351 319 323 309 271 225 244 240 236 198 219 210 202 202 197 202 198 206 209 210 212 211 208 210 216 215 226 233 229 217
25 29 73 62 24 334 349 1 50 80 14 77 108 121 343 300 315 327 320 322 297 270 266 233 221 214 223 202 208 206 206 206 211 215 214 210 213 217 221 226 224 227 231
18 334 80 77 284 282 142 107 13 326 66 320 349 96 194 257 342 316 309 277 226 232 254 228 215 188 180 181 210 222 238 217 216 218 214 212 216 219 220 222 220 219 227
17 31 22 102 158 141 118 90 116 333 4 149 142 194 214 345 257 235 264 278 337 167 193 215 162 139 154 169 161 197 211 234 234 232 223 214 214 216 215 220 215 217 223
21 31 24 40 17 200 193 192 143 145 188 203 218 183 194 184 195 225 247 237 218 265 90 255 185 230 241 212 202 189 201 217 220 221 227 219 215 214 213 215 216 215 219
11 3 19 5 349 354 247 238 179 189 207 235 216 255 290 245 214 178 212 278 220 149 242 252 176 228 227 256 226 197 216 217 216 219 218 225 227 220 218 215 217 212 212
353 340 5 357 347 347 293 241 223 224 268 266 264 260 267 256 230 207 201 175 286 250 188 225 235 217 226 220 243 230 221 207 206 208 203 211 210 219 222 214 211 205 200
354 349 352 357 4 6 357 334 261 242 230 242 247 250 247 248 241 220 223 207 212 252 247 217 248 209 228 168 249 284 292 265 249 195 213 221 216 209 219 212 204 196 188
356 356 350 353 360 7 358 351 341 348 335 309 291 286 271 262 261 237 243 239 227 226 237 172 235 254 237 191 190 201 242 255 259 256 225 224 203 208 213 210 202 195 189
4 5 349 347 354 352 357 350 338 348 358 354 357 359 343 347 316 319 288 260 260 232 206 260 238 233 245 242 225 209 222 244 251 278 281 234 204 233 229 217 202 196 190
1 5 2 1 355 2 351 350 354 357 2 2 350 355 349 346 13 36 63 355 293 291 209 270 298 306 223 220 238 215 211 235 245 276 294 288 237 231 238 217 201 197 187
10 8 6 355 347 344 351 7 0 349 360 353 342 339 332 352 349 321 314 322 340 329 283 246 283 298 280 1 220 222 217 229 255 246 247 253 238 233 227 210 201 193 188
326 340 353 346 334 331 326 345 338 339 345 336 324 328 321 337 337 341 332 319 340 8 341 311 297 297 320 343 301 312 314 206 221 225 225 225 216 224 215 206 191 201 194
321 2 2 339 323 321 318 318 319 315 327 331 324 322 322 310 303 332 351 333 331 341 338 321 334 357 337 357 331 319 294 295 294 255 267 315 310 281 182 201 211 207 202
13 5 347 332 318 314 314 313 257 269 299 312 312 311 319 311 313 320 320 348 307 346 343 330 358 357 298 292 312 294 292 11 318 327 320 296 171 231 222 185 199 205 201
340 336 331 326 316 311 304 314 270 253 291 296 300 311 323 335 333 328 339 346 339 338 257 290 325 326 310 355 295 291 328 271 249 285 55 290 248 272 225 182 183 203 206
323 321 329 323 316 302 301 307 312 271 273 285 291 313 337 352 19 349 317 338 5 5 44 242 353 293 282 300 285 284 280 280 296 288 186 230 247 259 274 213 195 202 204
334 337 311 317 319 312 327 351 9 332 305 303 307 8 2 44 6 358 15 0 346 320 323 217 276 274 290 296 266 296 267 204 296 278 243 182 235 263 299 259 215 208 203
321 328 328 327 318 347 17 39 41 31 11 342 330 1 61 54 350 358 1 341 340 307 319 321 318 305 289 284 276 214 219 214 192 303 255 165 202 145 296 297 333 152 190